Weather History for Perry, FL

Change the Weather History Date:

Monday, October 28, 2013

  Actual Average (KCTY) Record (KCTY)
Temperature  
Mean Temperature 63 °F 67 °F  
Max Temperature 81 °F 80 °F 90 °F (2010)
Min Temperature 46 °F 54 °F 35 °F (2001)
Degree Days  
Heating Degree Days 2 2  
Month to date heating degree days 25  
Since 1 July heating degree days 25  
Cooling Degree Days 0 4  
Month to date cooling degree days 189  
Year to date cooling degree days 2531  
Growing Degree Days 13 (Base 50)    
Moisture  
Dew Point 50 °F    
Average Humidity 70    
Maximum Humidity 100    
Minimum Humidity 32    
Precipitation  
Precipitation 0.08 in 0.10 in 0.29 in (2006)
Month to date precipitation 3.14  
Year to date precipitation 42.97  
Sea Level Pressure  
Sea Level Pressure 30.19 in    
Wind  
Wind Speed 1 mph (ENE)    
Max Wind Speed 7 mph    
Max Gust Speed -    
Visibility 9 miles    
Events      
T = Trace of Precipitation, MM = Missing Value Source: NWS Daily Summary

Daily Weather History Graph

Daily Weather History Graph

Search for Another Location

Airport:

Trip Planner

Search our weather history database for the weather conditions in past years. The results will help you decide how hot, cold, wet, or windy it might be!

Date:

Astronomy

Oct. 28, 2013 Rise Set
Actual Time 7:45 AM EDT 6:50 PM EDT
Civil Twilight 7:20 AM EDT 7:14 PM EDT
Nautical Twilight 6:52 AM EDT 7:42 PM EDT
Astronomical Twilight 6:24 AM EDT 8:10 PM EDT
Moon 2:02 AM EDT (10/28) 3:08 PM EDT (10/28)
Length of Visible Light 11h 53m
Length of Day
11h 04m
Waning Crescent, 34% of the Moon is Illuminated
Oct 28
Waning Crescent
Nov 3
New
Nov 10
First Quarter
Nov 17
Full
Nov 25
Last Quarter

Hourly Weather History & Observations

Time (EDT) Temp. Dew Point Humidity Pressure Visibility Wind Dir Wind Speed Gust Speed Precip Events Conditions
12:15 AM 51.8 °F 50.0 °F 94% 30.17 in 10.0 mi Calm Calm - N/A   Clear
12:35 AM 51.8 °F 51.8 °F 100% 30.16 in 10.0 mi Calm Calm - N/A   Clear
12:53 AM 54.0 °F 50.0 °F 86% 30.15 in - Calm Calm - 0.01 in   Unknown
12:55 AM 51.8 °F 50.0 °F 94% 30.16 in 10.0 mi Calm Calm - N/A   Clear
1:15 AM 51.8 °F 50.0 °F 94% 30.15 in 7.0 mi Calm Calm - N/A   Clear
1:35 AM 51.8 °F 50.0 °F 94% 30.15 in 10.0 mi Calm Calm - N/A   Clear
1:53 AM 54.0 °F 50.0 °F 86% 30.13 in - Calm Calm - N/A   Unknown
1:55 AM 51.8 °F 50.0 °F 94% 30.14 in 10.0 mi Calm Calm - N/A   Clear
2:15 AM 51.8 °F 50.0 °F 94% 30.14 in 10.0 mi Calm Calm - N/A   Clear
2:53 AM 54.0 °F 48.9 °F 83% 30.12 in - Calm Calm - N/A   Unknown
2:55 AM 53.6 °F 50.0 °F 88% 30.13 in 10.0 mi Calm Calm - N/A   Clear
3:15 AM 55.4 °F 50.0 °F 82% 30.14 in 10.0 mi Calm Calm - N/A   Clear
3:35 AM 53.6 °F 50.0 °F 88% 30.14 in 10.0 mi Calm Calm - N/A   Clear
3:53 AM 54.0 °F 48.9 °F 83% 30.12 in - Calm Calm - 0.01 in   Unknown
3:55 AM 53.6 °F 50.0 °F 88% 30.13 in 10.0 mi Calm Calm - N/A   Clear
4:15 AM 51.8 °F 50.0 °F 94% 30.14 in 10.0 mi Calm Calm - N/A   Clear
4:35 AM 51.8 °F 50.0 °F 94% 30.14 in 10.0 mi Calm Calm - N/A   Clear
4:53 AM 53.1 °F 48.9 °F 86% 30.14 in - Calm Calm - N/A   Unknown
4:55 AM 51.8 °F 50.0 °F 94% 30.15 in 10.0 mi Calm Calm - N/A   Clear
5:15 AM 51.8 °F 50.0 °F 94% 30.16 in 10.0 mi Calm Calm - N/A   Clear
5:35 AM 51.8 °F 50.0 °F 94% 30.16 in 10.0 mi Calm Calm - N/A   Clear
5:53 AM 51.1 °F 48.0 °F 89% 30.16 in - Calm Calm - N/A   Unknown
5:55 AM 50.0 °F 48.2 °F 94% 30.17 in 1.0 mi Calm Calm - N/A   Mist
6:15 AM 50.0 °F 48.2 °F 94% 30.17 in 4.0 mi Calm Calm - N/A   Clear
6:35 AM 48.2 °F 46.4 °F 93% 30.18 in 7.0 mi Calm Calm - N/A   Clear
6:53 AM 48.9 °F 46.0 °F 90% 30.17 in - Calm Calm - N/A   Unknown
6:55 AM 48.2 °F 46.4 °F 93% 30.18 in 4.0 mi Calm Calm - N/A   Clear
7:15 AM 48.2 °F 46.4 °F 93% 30.19 in 4.0 mi Calm Calm - N/A   Clear
7:35 AM 46.4 °F 44.6 °F 93% 30.19 in 4.0 mi Calm Calm - N/A   Clear
7:53 AM 48.0 °F 45.0 °F 89% 30.19 in - Calm Calm - N/A   Unknown
7:55 AM 46.4 °F 44.6 °F 93% 30.20 in 1.0 mi Calm Calm - N/A   Mist
8:15 AM 48.2 °F 46.4 °F 93% 30.20 in 5.0 mi Calm Calm - N/A   Clear
8:35 AM 48.2 °F 46.4 °F 93% 30.21 in 7.0 mi Calm Calm - N/A   Clear
8:53 AM 54.0 °F 50.0 °F 86% 30.20 in - Calm Calm - 0.01 in   Unknown
8:55 AM 51.8 °F 50.0 °F 94% 30.21 in 10.0 mi Calm Calm - N/A   Clear
9:15 AM 53.6 °F 53.6 °F 100% 30.22 in 10.0 mi Calm Calm - N/A   Clear
9:35 AM 59.0 °F 55.4 °F 88% 30.23 in 10.0 mi Calm Calm - N/A   Clear
9:53 AM 64.0 °F 54.0 °F 70% 30.23 in - Calm Calm - 0.02 in   Unknown
9:55 AM 62.6 °F 53.6 °F 72% 30.24 in 10.0 mi Calm Calm - N/A   Clear
10:15 AM 64.4 °F 53.6 °F 68% 30.24 in 10.0 mi Calm Calm - N/A   Clear
10:35 AM 68.0 °F 53.6 °F 60% 30.25 in 10.0 mi Calm Calm - N/A   Clear
10:53 AM 71.1 °F 50.0 °F 47% 30.24 in - East 4.6 mph - 0.02 in   Unknown
10:55 AM 69.8 °F 50.0 °F 49% 30.25 in 10.0 mi East 3.5 mph - N/A   Clear
11:15 AM 71.6 °F 50.0 °F 46% 30.25 in 10.0 mi ENE 5.8 mph - N/A   Clear
11:35 AM 71.6 °F 50.0 °F 46% 30.24 in 10.0 mi NNE 5.8 mph - N/A   Clear
11:53 AM 73.9 °F 50.0 °F 43% 30.23 in - East 4.6 mph - N/A   Unknown
11:55 AM 73.4 °F 50.0 °F 44% 30.24 in 10.0 mi ENE 3.5 mph - N/A   Clear
12:15 PM 73.4 °F 50.0 °F 44% 30.24 in 10.0 mi ENE 6.9 mph - N/A   Clear
12:35 PM 75.2 °F 50.0 °F 41% 30.23 in 10.0 mi ENE 6.9 mph - N/A   Clear
12:53 PM 78.1 °F 51.1 °F 39% 30.22 in - Calm Calm - N/A   Unknown
12:55 PM 75.2 °F 50.0 °F 41% 30.23 in 10.0 mi Calm Calm - N/A   Clear
1:15 PM 75.2 °F 48.2 °F 38% 30.22 in 10.0 mi NNE 3.5 mph - N/A   Clear
1:35 PM 77.0 °F 48.2 °F 36% 30.21 in 10.0 mi SE 4.6 mph - N/A   Clear
1:53 PM 78.1 °F 48.9 °F 36% 30.19 in - Calm Calm - 0.01 in   Unknown
1:55 PM 77.0 °F 46.4 °F 34% 30.21 in 10.0 mi ENE 3.5 mph - N/A   Clear
2:15 PM 77.0 °F 48.2 °F 36% 30.20 in 10.0 mi NNE 5.8 mph - N/A   Clear
2:35 PM 77.0 °F 46.4 °F 34% 30.19 in 10.0 mi Calm Calm - N/A   Clear
2:53 PM 80.1 °F 48.9 °F 34% 30.17 in - ENE 3.5 mph - N/A   Unknown
2:55 PM 78.8 °F 46.4 °F 32% 30.18 in 10.0 mi NE 3.5 mph - N/A   Clear
3:15 PM 77.0 °F 46.4 °F 34% 30.18 in 10.0 mi Calm Calm - N/A   Clear
3:35 PM 78.8 °F 46.4 °F 32% 30.17 in 10.0 mi North 4.6 mph - N/A   Clear
3:53 PM 80.1 °F 48.9 °F 34% 30.16 in - Variable 3.5 mph - N/A   Unknown
3:55 PM 78.8 °F 46.4 °F 32% 30.17 in 10.0 mi Calm Calm - N/A   Clear
4:15 PM 78.8 °F 46.4 °F 32% 30.17 in 10.0 mi NE 3.5 mph - N/A   Clear
4:35 PM 78.8 °F 46.4 °F 32% 30.17 in 10.0 mi NNE 3.5 mph - N/A   Clear
4:53 PM 80.1 °F 50.0 °F 35% 30.15 in - ENE 3.5 mph - N/A   Unknown
4:55 PM 78.8 °F 46.4 °F 32% 30.16 in 10.0 mi ENE 3.5 mph - N/A   Clear
5:15 PM 78.8 °F 46.4 °F 32% 30.16 in 10.0 mi Calm Calm - N/A   Clear
5:35 PM 78.8 °F 48.2 °F 34% 30.17 in 10.0 mi Calm Calm - N/A   Clear
5:53 PM 80.1 °F 51.1 °F 36% 30.16 in - Calm Calm - N/A   Unknown
5:55 PM 77.0 °F 48.2 °F 36% 30.17 in 10.0 mi Calm Calm - N/A   Clear
6:15 PM 77.0 °F 50.0 °F 39% 30.18 in 10.0 mi Calm Calm - N/A   Clear
6:35 PM 73.4 °F 51.8 °F 47% 30.18 in 10.0 mi Calm Calm - N/A   Clear
6:53 PM 70.0 °F 55.0 °F 59% 30.17 in - SW 5.8 mph - N/A   Unknown
6:55 PM 69.8 °F 55.4 °F 60% 30.18 in 10.0 mi SW 4.6 mph - N/A   Clear
7:15 PM 66.2 °F 55.4 °F 68% 30.18 in 10.0 mi WSW 3.5 mph - N/A   Clear
7:35 PM 66.2 °F 55.4 °F 68% 30.19 in 10.0 mi Calm Calm - N/A   Clear
7:53 PM 66.9 °F 55.0 °F 66% 30.18 in - West 3.5 mph - N/A   Unknown
7:55 PM 64.4 °F 55.4 °F 73% 30.19 in 10.0 mi WNW 3.5 mph - N/A   Clear
8:15 PM 64.4 °F 55.4 °F 73% 30.20 in 10.0 mi Calm Calm - N/A   Clear
8:35 PM 64.4 °F 55.4 °F 73% 30.20 in 10.0 mi Calm Calm - N/A   Clear
8:53 PM 64.9 °F 55.9 °F 73% 30.20 in - Calm Calm - N/A   Unknown
8:55 PM 64.4 °F 55.4 °F 73% 30.21 in 10.0 mi Calm Calm - N/A   Clear
9:15 PM 60.8 °F 55.4 °F 82% 30.21 in 10.0 mi Calm Calm - N/A   Clear
9:35 PM 59.0 °F 55.4 °F 88% 30.22 in 10.0 mi Calm Calm - N/A   Clear
9:53 PM 60.1 °F 55.0 °F 83% 30.21 in - Calm Calm - N/A   Unknown
9:55 PM 59.0 °F 55.4 °F 88% 30.22 in 10.0 mi Calm Calm - N/A   Clear
10:15 PM 59.0 °F 55.4 °F 88% 30.23 in 10.0 mi Calm Calm - N/A   Clear
10:35 PM 55.4 °F 53.6 °F 94% 30.23 in 5.0 mi Calm Calm - N/A   Clear
10:53 PM 59.0 °F 55.0 °F 87% 30.23 in - Calm Calm - N/A   Unknown
10:55 PM 57.2 °F 55.4 °F 94% 30.24 in 10.0 mi Calm Calm - N/A   Clear
11:15 PM 55.4 °F 55.4 °F 100% 30.25 in 5.0 mi Calm Calm - N/A   Clear
11:35 PM 55.4 °F 55.4 °F 100% 30.25 in 7.0 mi Calm Calm - N/A   Clear
11:53 PM 57.0 °F 54.0 °F 89% 30.23 in - Calm Calm - N/A   Unknown
11:55 PM 55.4 °F 53.6 °F 94% 30.24 in 10.0 mi Calm Calm - N/A   Clear